Location: Unspecified
(58.9933°N, 5.6375°E)
Time: 17:01:44
(UTC+02:00)

CZ-3 Stage 3 - Visible Passes

Search period start: 30 July 2016 00:00
Search period end: 09 August 2016 00:00
Orbit: 467 x 34736 km, 30.5° (Epoch: 29 July)

Date Brightness Start Highest point End Pass type
(mag) Time Alt. Az. Time Alt. Az. Time Alt. Az.
30 Jul 5.6 22:54:05 10° WSW 23:31:00 21° SW 23:39:58 10° S visible
02 Aug 5.7 22:43:28 10° WSW 23:22:17 21° SW 23:31:26 10° S visible
05 Aug 5.7 22:32:45 10° WSW 23:13:33 21° SW 23:22:54 10° S visible
08 Aug 5.7 22:21:53 10° WSW 23:04:49 21° SW 23:14:23 10° S visible
